DW8313 Weather Reports


Display with metric or nautical units.
time (UTC)temp
F
wind
direction
speed
MPH
gust
MPH
rain 1hr
in
rain 24hr
in
rain mn
in
humidity
%
barometer
mb
20260504000024 63 297 3.0 7.0 0.00 0.00 0.00 57 1008.9
20260503235803 63 290 3.0 9.0 0.00 0.00 0.00 57 1009.0
20260503235603 64 294 4.0 11.0 0.00 0.00 0.00 56 1009.1
20260503235403 64 289 4.0 11.0 0.00 0.00 0.00 57 1009.1
20260503235203 64 285 4.0 11.0 0.00 0.00 0.00 57 1009.1
20260503235003 64 281 4.0 11.0 0.00 0.00 0.00 57 1009.2
20260503234803 64 280 3.0 11.0 0.00 0.00 0.00 57 1009.3
20260503234603 64 264 2.0 9.0 0.00 0.00 0.00 57 1009.3
20260503234403 64 254 1.0 9.0 0.00 0.00 0.00 58 1009.3
20260503234203 63 226 1.0 9.0 0.00 0.00 0.00 58 1009.3
20260503234003 63 154 1.0 4.0 0.00 0.00 0.00 58 1009.3
20260503233804 63 158 1.0 4.0 0.00 0.00 0.00 58 1009.3
20260503233603 64 183 1.0 4.0 0.00 0.00 0.00 57 1009.3
20260503233403 64 252 1.0 6.0 0.00 0.00 0.00 56 1009.3
20260503233203 64 275 1.0 6.0 0.00 0.00 0.00 57 1009.3
20260503233003 64 289 2.0 6.0 0.00 0.00 0.00 57 1009.3
20260503232803 64 284 2.0 6.0 0.00 0.00 0.00 58 1009.2
20260503232603 64 286 2.0 6.0 0.00 0.00 0.00 59 1009.3
20260503232404 64 284 2.0 6.0 0.00 0.00 0.00 58 1009.3
20260503232203 64 287 2.0 6.0 0.00 0.00 0.00 58 1009.3
20260503232003 64 287 3.0 7.0 0.00 0.00 0.00 58 1009.3
20260503231803 64 290 3.0 8.0 0.00 0.00 0.00 57 1009.3
20260503231604 64 285 3.0 8.0 0.00 0.00 0.00 57 1009.3
20260503231403 65 285 2.0 8.0 0.00 0.00 0.00 56 1009.3
20260503231224 65 288 2.0 8.0 0.00 0.00 0.00 56 1009.4
20260503231003 65 261 1.0 8.0 0.00 0.00 0.00 56 1009.4
20260503230803 65 229 1.0 6.0 0.00 0.00 0.00 56 1009.4
20260503230603 65 203 2.0 7.0 0.00 0.00 0.00 57 1009.5
20260503230424 64 192 2.0 7.0 0.00 0.00 0.00 58 1009.4
20260503230204 64 193 2.0 7.0 0.00 0.00 0.00 58 1009.4
20260503230003 64 179 2.0 7.0 0.00 0.00 0.00 57 1009.5
20260503225803 64 192 2.0 7.0 0.00 0.00 0.00 57 1009.6
20260503225624 64 224 2.0 7.0 0.00 0.00 0.00 57 1009.6
20260503225424 64 266 2.0 7.0 0.00 0.00 0.00 57 1009.6
20260503225203 64 271 2.0 7.0 0.00 0.00 0.00 58 1009.6
20260503225024 64 277 2.0 7.0 0.00 0.00 0.00 58 1009.6
20260503224803 64 268 2.0 7.0 0.00 0.00 0.00 57 1009.7
20260503224603 64 267 2.0 7.0 0.00 0.00 0.00 57 1009.7
20260503224403 64 252 2.0 7.0 0.00 0.00 0.00 58 1009.7
20260503224203 64 254 2.0 7.0 0.00 0.00 0.00 58 1009.7
20260503224003 64 267 2.0 7.0 0.00 0.00 0.00 58 1009.7
20260503223803 64 275 2.0 7.0 0.00 0.00 0.00 58 1009.7
20260503223603 65 279 2.0 7.0 0.00 0.00 0.00 57 1009.7
20260503223403 65 287 2.0 7.0 0.00 0.00 0.00 58 1009.7
20260503223203 65 294 2.0 6.0 0.00 0.00 0.00 60 1009.7
20260503223003 64 293 2.0 6.0 0.00 0.00 0.00 61 1009.8
20260503222803 64 301 2.0 6.0 0.00 0.00 0.00 60 1009.8
20260503222603 64 296 2.0 7.0 0.00 0.00 0.00 62 1009.7
20260503222403 64 293 2.0 7.0 0.00 0.00 0.00 62 1009.8
20260503222203 63 295 3.0 7.0 0.00 0.00 0.00 63 1009.8
20260503222003 63 295 4.0 7.0 0.00 0.00 0.00 63 1009.8
20260503221803 63 293 4.0 7.0 0.00 0.00 0.00 62 1010.0
20260503221603 63 295 4.0 7.0 0.00 0.00 0.00 63 1009.9
20260503221403 63 288 4.0 7.0 0.00 0.00 0.00 64 1010.0
20260503221224 63 283 4.0 7.0 0.00 0.00 0.00 65 1010.0
20260503221003 62 280 3.0 7.0 0.00 0.00 0.00 66 1009.9
20260503220824 62 284 4.0 7.0 0.00 0.00 0.00 65 1009.9
20260503220603 62 280 4.0 7.0 0.00 0.00 0.00 66 1010.0
20260503220403 62 287 3.0 7.0 0.00 0.00 0.00 66 1010.0
20260503220203 62 290 3.0 7.0 0.00 0.00 0.00 67 1009.9
20260503220003 62 290 2.0 7.0 0.00 0.00 0.00 68 1009.9
20260503215803 62 285 2.0 7.0 0.00 0.00 0.00 67 1010.1
20260503215624 62 284 1.0 7.0 0.00 0.00 0.00 68 1010.1
20260503215403 62 264 1.0 6.0 0.00 0.00 0.00 67 1010.1
20260503215203 62 255 1.0 6.0 0.00 0.00 0.00 67 1010.1
20260503215003 62 253 1.0 6.0 0.00 0.00 0.00 68 1010.2
20260503214803 62 243 1.0 6.0 0.00 0.00 0.00 67 1010.2
20260503214603 62 249 1.0 5.0 0.00 0.00 0.00 68 1010.2
20260503214403 62 275 1.0 6.0 0.00 0.00 0.00 68 1010.2
20260503214203 62 281 2.0 7.0 0.00 0.00 0.00 67 1010.2
20260503214003 63 283 2.0 7.0 0.00 0.00 0.00 66 1010.2
20260503213803 63 286 2.0 7.0 0.00 0.00 0.00 65 1010.2
20260503213603 63 289 2.0 7.0 0.00 0.00 0.00 65 1010.3
20260503213403 64 289 2.0 7.0 0.00 0.00 0.00 67 1010.3
20260503213203 64 294 1.0 6.0 0.00 0.00 0.00 66 1010.2
20260503213003 63 296 1.0 6.0 0.00 0.00 0.00 67 1010.2
20260503212803 63 276 2.0 8.0 0.00 0.00 0.00 69 1010.2
20260503212603 63 264 2.0 8.0 0.00 0.00 0.00 68 1010.2
20260503212403 63 242 2.0 8.0 0.00 0.00 0.00 68 1010.3
20260503212203 63 225 2.0 8.0 0.00 0.00 0.00 65 1010.3
20260503212004 63 232 2.0 8.0 0.00 0.00 0.00 65 1010.2
20260503211803 62 277 2.0 8.0 0.00 0.00 0.00 66 1010.3
20260503211603 62 290 3.0 8.0 0.00 0.00 0.00 64 1010.2
20260503211404 62 301 3.0 8.0 0.00 0.00 0.00 65 1010.1
20260503211203 62 303 3.0 8.0 0.00 0.00 0.00 67 1010.1
20260503211003 61 302 3.0 8.0 0.00 0.00 0.00 69 1010.1
20260503210803 61 301 3.0 8.0 0.00 0.00 0.00 69 1010.1
20260503210603 61 292 2.0 8.0 0.00 0.00 0.00 68 1010.2
20260503210403 62 279 2.0 8.0 0.00 0.00 0.00 67 1010.1
20260503210203 62 280 2.0 8.0 0.00 0.00 0.00 66 1010.1
20260503210003 63 284 2.0 8.0 0.00 0.00 0.00 66 1010.2
20260503205803 63 274 2.0 7.0 0.00 0.00 0.00 67 1010.1
20260503205603 62 281 3.0 7.0 0.00 0.00 0.00 68 1010.1
20260503205403 62 288 3.0 7.0 0.00 0.00 0.00 67 1010.2
20260503205224 62 290 3.0 7.0 0.00 0.00 0.00 65 1010.2
20260503205003 62 288 3.0 9.0 0.00 0.00 0.00 65 1010.2
20260503204803 62 293 3.0 9.0 0.00 0.00 0.00 67 1010.2
20260503204603 62 292 4.0 9.0 0.00 0.00 0.00 67 1010.2
20260503204403 62 289 3.0 9.0 0.00 0.00 0.00 67 1010.2
20260503204203 63 288 3.0 9.0 0.00 0.00 0.00 67 1010.3
20260503204024 63 273 3.0 9.0 0.00 0.00 0.00 66 1010.3
20260503203824 63 252 2.0 9.0 0.00 0.00 0.00 68 1010.2
20260503203624 62 245 2.0 9.0 0.00 0.00 0.00 70 1010.2
20260503203403 61 246 2.0 9.0 0.00 0.00 0.00 70 1010.2
20260503203203 61 251 2.0 9.0 0.00 0.00 0.00 68 1010.2
20260503203003 61 269 2.0 7.0 0.00 0.00 0.00 69 1010.2
20260503202803 61 273 2.0 7.0 0.00 0.00 0.00 69 1010.2
20260503202603 61 277 2.0 8.0 0.00 0.00 0.00 69 1010.2
20260503202403 61 279 2.0 8.0 0.00 0.00 0.00 69 1010.2
20260503202203 61 280 2.0 8.0 0.00 0.00 0.00 72 1010.3
20260503202003 61 272 2.0 8.0 0.00 0.00 0.00 71 1010.3
20260503201803 61 261 2.0 8.0 0.00 0.00 0.00 71 1010.4
20260503201603 60 253 2.0 12.0 0.00 0.00 0.00 72 1010.3
20260503201403 60 249 2.0 12.0 0.00 0.00 0.00 74 1010.3
20260503201224 59 258 2.0 12.0 0.00 0.00 0.00 73 1010.4
20260503201003 59 273 3.0 12.0 0.00 0.00 0.00 73 1010.4
20260503200803 59 287 3.0 12.0 0.00 0.00 0.00 74 1010.5
20260503200624 59 295 3.0 12.0 0.00 0.00 0.00 75 1010.5
20260503200403 59 294 3.0 9.0 0.00 0.00 0.00 75 1010.5
20260503200224 59 294 3.0 9.0 0.00 0.00 0.00 74 1010.5
20260503200003 59 292 3.0 9.0 0.00 0.00 0.00 75 1010.5
20260503195803 59 287 2.0 6.0 0.00 0.00 0.00 75 1010.5
20260503195603 59 283 3.0 10.0 0.00 0.00 0.00 75 1010.5
20260503195424 59 277 2.0 10.0 0.00 0.00 0.00 75 1010.6
20260503195203 59 282 3.0 10.0 0.00 0.00 0.00 75 1010.6
20260503195025 59 278 3.0 10.0 0.00 0.00 0.00 76 1010.6
20260503194803 59 282 2.0 10.0 0.00 0.00 0.00 76 1010.7
20260503194624 59 284 2.0 10.0 0.00 0.00 0.00 75 1010.6
20260503194403 59 262 2.0 9.0 0.00 0.00 0.00 76 1010.7
20260503194203 59 252 2.0 9.0 0.00 0.00 0.00 75 1010.7
20260503194003 59 252 2.0 9.0 0.00 0.00 0.00 74 1010.7
20260503193803 59 242 2.0 9.0 0.00 0.00 0.00 74 1010.8
20260503193604 60 244 2.0 9.0 0.00 0.00 0.00 74 1010.7
20260503193403 60 255 2.0 6.0 0.00 0.00 0.00 74 1010.8
20260503193203 60 263 2.0 8.0 0.00 0.00 0.00 73 1010.8
20260503193004 60 262 3.0 8.0 0.00 0.00 0.00 73 1010.8
20260503192803 60 263 3.0 8.0 0.00 0.00 0.00 73 1010.8
20260503192603 60 271 3.0 10.0 0.00 0.00 0.00 74 1010.8
20260503192425 60 268 3.0 10.0 0.00 0.00 0.00 74 1010.8
20260503192203 60 270 3.0 10.0 0.00 0.00 0.00 75 1010.9
20260503192003 60 280 3.0 10.0 0.00 0.00 0.00 74 1010.9
20260503191803 60 284 2.0 10.0 0.00 0.00 0.00 75 1010.8
20260503191604 61 275 1.0 10.0 0.00 0.00 0.00 74 1010.8
20260503191403 61 288 1.0 10.0 0.00 0.00 0.00 72 1010.8
20260503191203 61 272 1.0 10.0 0.00 0.00 0.00 75 1010.8
20260503191003 60 270 1.0 7.0 0.00 0.00 0.00 76 1010.8
20260503190803 60 273 2.0 7.0 0.00 0.00 0.00 74 1010.9
20260503190603 60 266 2.0 7.0 0.00 0.00 0.00 75 1010.8
20260503190403 60 257 2.0 7.0 0.00 0.00 0.00 75 1010.9
20260503190203 60 240 2.0 7.0 0.00 0.00 0.00 76 1010.9
20260503190003 59 169 1.0 6.0 0.00 0.00 0.00 77 1010.9
20260503185803 59 186 1.0 6.0 0.00 0.00 0.00 77 1010.9
20260503185603 58 170 1.0 6.0 0.00 0.00 0.00 76 1011.0
20260503185403 58 245 1.0 6.0 0.00 0.00 0.00 77 1011.0
20260503185203 58 288 1.0 5.0 0.00 0.00 0.00 79 1011.0
20260503185003 58 282 1.0 5.0 0.00 0.00 0.00 80 1010.9
20260503184824 58 288 1.0 5.0 0.00 0.00 0.00 81 1010.9
20260503184603 57 292 1.0 4.0 0.00 0.00 0.00 82 1010.9
20260503184403 57 285 1.0 4.0 0.00 0.00 0.00 83 1010.9
20260503184203 57 284 1.0 4.0 0.00 0.00 0.00 84 1010.9
20260503184003 56 287 1.0 4.0 0.00 0.00 0.00 85 1010.9
20260503183824 56 292 1.0 5.0 0.00 0.00 0.00 84 1011.0
20260503183603 56 286 1.0 5.0 0.00 0.00 0.00 85 1011.0
20260503183403 56 287 1.0 5.0 0.00 0.00 0.00 86 1011.0
20260503183203 56 285 1.0 5.0 0.00 0.00 0.00 86 1011.0
20260503183003 56 289 1.0 5.0 0.00 0.00 0.00 87 1011.0
20260503182803 56 258 1.0 5.0 0.00 0.00 0.00 88 1011.0
20260503182603 55 256 1.0 5.0 0.00 0.00 0.00 88 1011.1
20260503182425 55 261 1.0 5.0 0.00 0.00 0.00 89 1011.0
20260503182203 55 272 1.0 5.0 0.00 0.00 0.00 89 1011.1
20260503182004 55 270 1.0 5.0 0.00 0.00 0.00 89 1011.1
20260503181803 55 282 1.0 4.0 0.00 0.00 0.00 90 1011.0
20260503181603 55 287 1.0 5.0 0.00 0.00 0.00 89 1011.1
20260503181403 55 283 1.0 5.0 0.00 0.00 0.00 90 1011.1
20260503181203 55 281 1.0 5.0 0.00 0.00 0.00 90 1011.0
20260503181004 54 286 1.0 5.0 0.00 0.00 0.00 90 1011.1
20260503180803 54 289 2.0 5.0 0.00 0.00 0.00 90 1011.1
20260503180603 54 291 1.0 5.0 0.00 0.00 0.00 90 1011.0
20260503180403 54 284 2.0 5.0 0.00 0.00 0.00 90 1011.0
20260503180203 54 284 2.0 5.0 0.00 0.00 0.00 90 1011.0
20260503180024 54 281 1.0 4.0 0.00 0.00 0.00 90 1011.0
20260503175803 54 278 1.0 4.0 0.00 0.00 0.00 90 1011.0
20260503175603 54 275 1.0 4.0 0.00 0.00 0.00 90 1011.0
20260503175403 54 274 1.0 4.0 0.00 0.00 0.00 91 1011.0
20260503175203 54 274 1.0 4.0 0.00 0.00 0.00 91 1011.0
20260503175003 54 278 1.0 4.0 0.00 0.00 0.00 91 1010.9
20260503174824 54 277 1.0 4.0 0.00 0.00 0.00 92 1010.9
20260503174603 54 267 1.0 4.0 0.00 0.00 0.00 93 1010.9
20260503174403 54 277 1.0 3.0 0.00 0.00 0.00 93 1010.9
20260503174203 54 270 1.0 3.0 0.00 0.00 0.00 93 1010.9
20260503174003 53 266 1.0 3.0 0.00 0.00 0.00 93 1010.9
20260503173803 53 271 1.0 3.0 0.00 0.00 0.00 93 1010.8
20260503173603 53 278 1.0 3.0 0.00 0.00 0.00 93 1010.8
20260503173424 53 281 2.0 4.0 0.00 0.00 0.00 93 1010.8
20260503173224 53 281 2.0 4.0 0.00 0.00 0.00 94 1010.8
20260503173004 53 277 2.0 4.0 0.00 0.00 0.00 94 1010.8
20260503172803 53 281 2.0 4.0 0.00 0.00 0.00 95 1010.7
20260503172624 53 283 2.0 4.0 0.00 0.00 0.00 95 1010.7
20260503172403 53 283 1.0 4.0 0.00 0.00 0.00 95 1010.7
20260503172203 53 283 1.0 4.0 0.00 0.00 0.00 95 1010.6
20260503172003 53 297 1.0 5.0 0.00 0.00 0.00 95 1010.7
20260503171803 53 292 1.0 5.0 0.00 0.00 0.00 96 1010.6
20260503171603 53 286 1.0 5.0 0.00 0.00 0.00 96 1010.6
20260503171403 53 292 1.0 5.0 0.00 0.00 0.00 96 1010.6
20260503171203 53 300 1.0 5.0 0.00 0.00 0.00 96 1010.6
20260503171003 53 305 0.0 2.0 0.00 0.00 0.00 96 1010.6
20260503170803 53 309 0.0 2.0 0.00 0.00 0.00 96 1010.6
20260503170603 53 302 0.0 2.0 0.00 0.00 0.00 96 1010.6
20260503170403 53 300 1.0 6.0 0.00 0.00 0.00 96 1010.6
20260503170203 53 299 1.0 6.0 0.00 0.00 0.00 96 1010.6
20260503151004 51 0 0.0 0.0 0.00 0.00 0.00 96 1010.1
20260503150804 51 0 0.0 0.0 0.00 0.00 0.00 96 1010.1
20260503150604 51 0 0.0 0.0 0.00 0.00 0.00 96 1010.1
20260503150404 51 0 0.0 0.0 0.00 0.00 0.00 96 1010.1
20260503150204 51 0 0.0 0.0 0.00 0.00 0.00 96 1010.1
20260503140204 51 0 0.0 0.0 0.00 0.00 0.00 96 1009.6
20260503131405 50 0 0.0 0.0 0.00 0.00 0.00 96 1008.9
20260503131225 50 91 0.0 1.0 0.00 0.00 0.00 96 1008.8
20260503131004 50 90 0.0 2.0 0.00 0.00 0.00 96 1008.8
20260503130804 50 98 0.0 2.0 0.00 0.00 0.00 96 1008.8
20260503130604 50 98 0.0 2.0 0.00 0.00 0.00 96 1008.7
20260503130404 50 98 0.0 2.0 0.00 0.00 0.00 95 1008.7
20260503130204 50 100 0.0 2.0 0.00 0.00 0.00 95 1008.7
20260503120204 49 0 0.0 0.0 0.00 0.00 0.00 95 1008.2
20260503110804 50 0 0.0 0.0 0.00 0.00 0.00 92 1008.1
20260503110604 50 0 0.0 0.0 0.00 0.00 0.00 91 1008.2
20260503110404 50 0 0.0 0.0 0.00 0.00 0.00 91 1008.2
20260503110204 51 0 0.0 0.0 0.00 0.00 0.00 91 1008.2
20260503100204 54 0 0.0 0.0 0.00 0.00 0.00 88 1008.4
20260503090404 55 0 0.0 0.0 0.00 0.00 0.00 80 1009.0
20260503090225 55 0 0.0 0.0 0.00 0.00 0.00 80 1009.1
20260503081604 57 0 0.0 0.0 0.00 0.00 0.00 73 1009.2
20260503081404 57 0 0.0 0.0 0.00 0.00 0.00 73 1009.3
20260503081204 57 0 0.0 0.0 0.00 0.00 0.00 73 1009.2
20260503081025 57 0 0.0 0.0 0.00 0.00 0.00 73 1009.2
20260503080804 56 0 0.0 0.0 0.00 0.00 0.00 74 1009.2
20260503080604 56 0 0.0 0.0 0.00 0.00 0.00 75 1009.3
20260503080404 56 0 0.0 0.0 0.00 0.00 0.00 76 1009.3
20260503080204 56 0 0.0 0.0 0.00 0.00 0.00 76 1009.3
20260503072804 59 0 0.0 0.0 0.00 0.00 0.00 71 1009.2
20260503072604 59 0 0.0 0.0 0.00 0.00 0.00 71 1009.2
20260503072404 59 0 0.0 0.0 0.00 0.00 0.00 70 1009.2
20260503072204 60 0 0.0 0.0 0.00 0.00 0.00 70 1009.2
20260503072004 60 0 0.0 0.0 0.00 0.00 0.00 70 1009.3
20260503071804 60 0 0.0 0.0 0.00 0.00 0.00 69 1009.3
20260503071605 60 0 0.0 0.0 0.00 0.00 0.00 69 1009.3
20260503071425 60 0 0.0 0.0 0.00 0.00 0.00 69 1009.2
20260503071204 60 0 0.0 0.0 0.00 0.00 0.00 68 1009.2
20260503071004 60 0 0.0 0.0 0.00 0.00 0.00 68 1009.2
20260503070804 60 0 0.0 0.0 0.00 0.00 0.00 68 1009.2
20260503070604 61 0 0.0 0.0 0.00 0.00 0.00 67 1009.2
20260503070404 61 0 0.0 0.0 0.00 0.00 0.00 66 1009.3
20260503070225 61 0 0.0 0.0 0.00 0.00 0.00 65 1009.2
20260503060204 58 0 0.0 0.0 0.00 0.00 0.00 74 1009.6
20260503055004 59 0 0.0 0.0 0.00 0.00 0.00 75 1009.6
20260503054804 59 0 0.0 0.0 0.00 0.00 0.00 76 1009.6
20260503054604 59 0 0.0 0.0 0.00 0.00 0.00 75 1009.6
20260503054404 59 0 0.0 0.0 0.00 0.00 0.00 74 1009.6
20260503054225 59 0 0.0 0.0 0.00 0.00 0.00 74 1009.5
20260503054025 59 0 0.0 0.0 0.00 0.00 0.00 74 1009.6
20260503053804 59 0 0.0 0.0 0.00 0.00 0.00 75 1009.5
20260503053604 59 0 0.0 0.0 0.00 0.00 0.00 74 1009.6
20260503053404 60 0 0.0 0.0 0.00 0.00 0.00 74 1009.6
20260503053204 60 0 0.0 0.0 0.00 0.00 0.00 74 1009.6
20260503053025 60 0 0.0 0.0 0.00 0.00 0.00 73 1009.5
20260503052825 60 0 0.0 0.0 0.00 0.00 0.00 73 1009.6
20260503052604 60 0 0.0 0.0 0.00 0.00 0.00 73 1009.6
20260503052425 60 0 0.0 0.0 0.00 0.00 0.00 72 1009.6
20260503052205 60 0 0.0 0.0 0.00 0.00 0.00 72 1009.6
20260503052004 60 0 0.0 0.0 0.00 0.00 0.00 72 1009.5
20260503051805 61 0 0.0 0.0 0.00 0.00 0.00 73 1009.5
20260503051625 61 0 0.0 0.0 0.00 0.00 0.00 73 1009.6
20260503051404 61 0 0.0 0.0 0.00 0.00 0.00 73 1009.5
20260503051225 61 0 0.0 0.0 0.00 0.00 0.00 72 1009.6
20260503051025 61 0 0.0 0.0 0.00 0.00 0.00 72 1009.5
20260503050804 61 0 0.0 0.0 0.00 0.00 0.00 71 1009.6
20260503050604 61 0 0.0 0.0 0.00 0.00 0.00 71 1009.6
20260503050404 61 0 0.0 0.0 0.00 0.00 0.00 70 1009.6
20260503050204 61 0 0.0 0.0 0.00 0.00 0.00 69 1009.7
20260503050025 61 0 0.0 0.0 0.00 0.00 0.00 68 1009.6
20260503045825 61 0 0.0 0.0 0.00 0.00 0.00 67 1009.6
20260503045604 62 0 0.0 0.0 0.00 0.00 0.00 66 1009.6
20260503045404 62 0 0.0 0.0 0.00 0.00 0.00 65 1009.6
20260503045204 62 0 0.0 0.0 0.00 0.00 0.00 64 1009.6
20260503045004 62 0 0.0 0.0 0.00 0.00 0.00 65 1009.6
20260503044804 62 0 0.0 0.0 0.00 0.00 0.00 66 1009.6
20260503044604 63 0 0.0 0.0 0.00 0.00 0.00 65 1009.6
20260503044404 63 0 0.0 0.0 0.00 0.00 0.00 64 1009.6
20260503044204 63 0 0.0 0.0 0.00 0.00 0.00 64 1009.5
20260503044004 63 0 0.0 0.0 0.00 0.00 0.00 63 1009.6
20260503043804 63 0 0.0 0.0 0.00 0.00 0.00 63 1009.5
20260503043625 64 0 0.0 0.0 0.00 0.00 0.00 62 1009.4
20260503043404 64 0 0.0 0.0 0.00 0.00 0.00 60 1009.5
20260503043205 64 0 0.0 0.0 0.00 0.00 0.00 61 1009.4
20260503043004 64 0 0.0 0.0 0.00 0.00 0.00 60 1009.3
20260503042825 64 0 0.0 0.0 0.00 0.00 0.00 60 1009.2
20260503042604 65 0 0.0 0.0 0.00 0.00 0.00 59 1009.2
20260503042404 65 117 0.0 2.0 0.00 0.00 0.00 59 1009.2
20260503042204 65 117 0.0 2.0 0.00 0.00 0.00 58 1009.2
20260503042004 65 117 0.0 2.0 0.00 0.00 0.00 57 1009.2
20260503041825 66 117 0.0 2.0 0.00 0.00 0.00 56 1009.2
20260503041604 65 117 0.0 2.0 0.00 0.00 0.00 55 1009.1
20260503041404 65 0 0.0 0.0 0.00 0.00 0.00 55 1009.1
20260503041204 66 0 0.0 0.0 0.00 0.00 0.00 53 1009.0
20260503041004 66 0 0.0 0.0 0.00 0.00 0.00 53 1009.0
20260503040804 65 0 0.0 0.0 0.00 0.00 0.00 51 1009.0
20260503040625 65 0 0.0 0.0 0.00 0.00 0.00 50 1008.9
20260503040404 65 0 0.0 0.0 0.00 0.00 0.00 50 1008.8
20260503040204 65 119 0.0 2.0 0.00 0.00 0.00 50 1008.8
20260503040004 65 125 0.0 3.0 0.00 0.00 0.00 52 1008.8
20260503035804 65 125 0.0 3.0 0.00 0.00 0.00 51 1008.7
20260503035604 65 125 0.0 3.0 0.00 0.00 0.00 51 1008.7
20260503035404 65 125 0.0 3.0 0.00 0.00 0.00 51 1008.7
20260503035204 65 128 0.0 3.0 0.00 0.00 0.00 51 1008.7
20260503035004 65 0 0.0 0.0 0.00 0.00 0.00 52 1008.6
20260503034804 65 0 0.0 0.0 0.00 0.00 0.00 53 1008.6
20260503034604 64 0 0.0 0.0 0.00 0.00 0.00 54 1008.7
20260503034425 64 0 0.0 0.0 0.00 0.00 0.00 54 1008.7
20260503034204 64 0 0.0 0.0 0.00 0.00 0.00 55 1008.7
20260503034004 64 0 0.0 0.0 0.00 0.00 0.00 56 1008.6
20260503033804 64 0 0.0 0.0 0.00 0.00 0.00 57 1008.6
20260503033625 64 0 0.0 0.0 0.00 0.00 0.00 59 1008.6
20260503033404 64 0 0.0 0.0 0.00 0.00 0.00 62 1008.5
20260503033204 64 0 0.0 0.0 0.00 0.00 0.00 61 1008.6
20260503033025 64 0 0.0 0.0 0.00 0.00 0.00 62 1008.6
20260503032804 64 0 0.0 0.0 0.00 0.00 0.00 64 1008.5
20260503032604 64 0 0.0 0.0 0.00 0.00 0.00 65 1008.5
20260503032404 64 0 0.0 0.0 0.00 0.00 0.00 65 1008.5
20260503032204 64 0 0.0 0.0 0.00 0.00 0.00 65 1008.5
20260503032004 65 0 0.0 0.0 0.00 0.00 0.00 65 1008.5
20260503031804 65 0 0.0 0.0 0.00 0.00 0.00 64 1008.4
20260503031605 65 0 0.0 0.0 0.00 0.00 0.00 64 1008.5
20260503031404 65 0 0.0 0.0 0.00 0.00 0.00 64 1008.5
20260503031204 65 0 0.0 0.0 0.00 0.00 0.00 63 1008.5
20260503031004 66 0 0.0 0.0 0.00 0.00 0.00 63 1008.5
20260503030804 66 0 0.0 0.0 0.00 0.00 0.00 63 1008.5
20260503030604 66 0 0.0 0.0 0.00 0.00 0.00 63 1008.5
20260503030404 66 0 0.0 0.0 0.00 0.00 0.00 62 1008.5
20260503030204 66 0 0.0 0.0 0.00 0.00 0.00 62 1008.4
20260503030025 66 0 0.0 0.0 0.00 0.00 0.00 62 1008.4
20260503025804 66 0 0.0 0.0 0.00 0.00 0.00 61 1008.4
20260503025604 67 0 0.0 0.0 0.00 0.00 0.00 61 1008.4
20260503025404 67 0 0.0 0.0 0.00 0.00 0.00 60 1008.4
20260503025225 67 0 0.0 0.0 0.00 0.00 0.00 59 1008.3
20260503025004 68 0 0.0 0.0 0.00 0.00 0.00 59 1008.2
20260503024804 68 0 0.0 0.0 0.00 0.00 0.00 60 1008.2
20260503024604 68 0 0.0 0.0 0.00 0.00 0.00 59 1008.3
20260503024425 68 0 0.0 0.0 0.00 0.00 0.00 59 1008.2
20260503024204 69 0 0.0 0.0 0.00 0.00 0.00 59 1008.2
20260503024004 69 0 0.0 0.0 0.00 0.00 0.00 58 1008.2
20260503023825 69 0 0.0 0.0 0.00 0.00 0.00 57 1008.2
20260503023604 70 0 0.0 0.0 0.00 0.00 0.00 57 1008.1
20260503023405 70 0 0.0 0.0 0.00 0.00 0.00 56 1008.2
20260503023204 70 0 0.0 0.0 0.00 0.00 0.00 55 1008.1
20260503023004 70 0 0.0 0.0 0.00 0.00 0.00 55 1008.1
20260503022804 71 0 0.0 0.0 0.00 0.00 0.00 54 1008.1
20260503022604 71 0 0.0 0.0 0.00 0.00 0.00 53 1008.1
20260503022404 72 0 0.0 0.0 0.00 0.00 0.00 53 1008.1
20260503022204 72 0 0.0 0.0 0.00 0.00 0.00 52 1008.1
20260503022025 72 0 0.0 0.0 0.00 0.00 0.00 51 1008.1
20260503021804 72 0 0.0 0.0 0.00 0.00 0.00 50 1008.1
20260503021604 72 317 0.0 2.0 0.00 0.00 0.00 50 1008.1
20260503021404 72 322 0.0 2.0 0.00 0.00 0.00 49 1008.1
20260503021204 72 322 0.0 2.0 0.00 0.00 0.00 49 1008.1
20260503021004 73 322 0.0 2.0 0.00 0.00 0.00 48 1008.2
20260503020804 73 322 0.0 2.0 0.00 0.00 0.00 47 1008.2
20260503020604 73 321 0.0 3.0 0.00 0.00 0.00 46 1008.2
20260503020404 73 330 0.0 4.0 0.00 0.00 0.00 47 1008.1
20260503020204 73 332 1.0 4.0 0.00 0.00 0.00 47 1008.1
20260503020004 73 324 1.0 4.0 0.00 0.00 0.00 47 1008.1
20260503015804 73 320 1.0 6.0 0.00 0.00 0.00 47 1008.1
20260503015604 73 319 1.0 6.0 0.00 0.00 0.00 46 1008.1
20260503015404 74 313 1.0 6.0 0.00 0.00 0.00 46 1008.1
20260503015204 74 307 1.0 6.0 0.00 0.00 0.00 45 1008.2
20260503015004 74 322 1.0 6.0 0.00 0.00 0.00 45 1008.1
20260503014804 74 331 1.0 5.0 0.00 0.00 0.00 45 1008.1
20260503014604 74 324 1.0 6.0 0.00 0.00 0.00 44 1008.1
20260503014404 74 323 2.0 6.0 0.00 0.00 0.00 44 1008.1
20260503014204 74 317 2.0 6.0 0.00 0.00 0.00 44 1008.1
20260503014025 74 317 2.0 6.0 0.00 0.00 0.00 43 1008.2
20260503013804 74 312 2.0 6.0 0.00 0.00 0.00 43 1008.2
20260503013604 74 317 2.0 5.0 0.00 0.00 0.00 43 1008.2
20260503013404 74 318 2.0 5.0 0.00 0.00 0.00 42 1008.1
20260503013226 74 325 2.0 5.0 0.00 0.00 0.00 42 1008.1
20260503013004 75 323 2.0 5.0 0.00 0.00 0.00 42 1008.1
20260503012804 75 327 2.0 7.0 0.00 0.00 0.00 41 1008.2
20260503012604 75 326 2.0 7.0 0.00 0.00 0.00 42 1008.1
20260503012426 75 328 2.0 7.0 0.00 0.00 0.00 41 1008.1
20260503012204 75 323 2.0 7.0 0.00 0.00 0.00 41 1008.0
20260503012004 75 316 2.0 7.0 0.00 0.00 0.00 41 1008.1
20260503011804 75 308 3.0 7.0 0.00 0.00 0.00 41 1008.0
20260503011604 75 299 3.0 7.0 0.00 0.00 0.00 40 1008.0
20260503011404 75 292 3.0 7.0 0.00 0.00 0.00 41 1007.9
20260503011204 75 289 3.0 8.0 0.00 0.00 0.00 40 1008.0
20260503011004 76 289 3.0 8.0 0.00 0.00 0.00 40 1008.0
20260503010825 76 291 3.0 8.0 0.00 0.00 0.00 39 1007.9
20260503010604 76 298 3.0 8.0 0.00 0.00 0.00 39 1007.9
20260503010404 76 300 3.0 8.0 0.00 0.00 0.00 38 1007.9
20260503010204 76 305 2.0 7.0 0.00 0.00 0.00 39 1007.9
20260503010004 76 302 3.0 7.0 0.00 0.00 0.00 39 1007.9
20260503005825 76 296 3.0 7.0 0.00 0.00 0.00 39 1007.9
20260503005604 76 294 3.0 7.0 0.00 0.00 0.00 39 1007.9
20260503005404 76 296 3.0 7.0 0.00 0.00 0.00 38 1007.9
20260503005205 76 304 3.0 7.0 0.00 0.00 0.00 38 1007.9
20260503005004 77 306 3.0 7.0 0.00 0.00 0.00 37 1007.9
20260503004804 77 311 3.0 7.0 0.00 0.00 0.00 38 1007.8
20260503004604 76 316 3.0 7.0 0.00 0.00 0.00 38 1007.9
20260503004404 76 316 3.0 7.0 0.00 0.00 0.00 38 1007.9
20260503004204 77 311 3.0 8.0 0.00 0.00 0.00 37 1007.9
20260503004025 77 313 3.0 8.0 0.00 0.00 0.00 38 1008.0
20260503003804 77 312 3.0 9.0 0.00 0.00 0.00 38 1008.0
20260503003604 77 308 3.0 9.0 0.00 0.00 0.00 38 1008.0
20260503003404 77 307 3.0 9.0 0.00 0.00 0.00 38 1007.9
20260503003225 77 304 3.0 9.0 0.00 0.00 0.00 38 1007.9
20260503003005 77 298 4.0 9.0 0.00 0.00 0.00 38 1008.0
20260503002825 77 294 4.0 10.0 0.00 0.00 0.00 38 1007.9
20260503002604 77 294 4.0 10.0 0.00 0.00 0.00 38 1008.0
20260503002404 77 296 4.0 10.0 0.00 0.00 0.00 37 1007.9
20260503002204 77 298 4.0 10.0 0.00 0.00 0.00 38 1007.9
20260503002005 78 304 3.0 10.0 0.00 0.00 0.00 37 1007.9
20260503001804 78 314 3.0 7.0 0.00 0.00 0.00 37 1007.9
20260503001604 78 313 3.0 7.0 0.00 0.00 0.00 36 1007.9
20260503001426 78 309 3.0 7.0 0.00 0.00 0.00 36 1007.9
20260503001204 78 307 3.0 6.0 0.00 0.00 0.00 35 1007.9
20260503001004 78 304 3.0 6.0 0.00 0.00 0.00 36 1007.9
20260503000825 78 302 3.0 6.0 0.00 0.00 0.00 35 1007.8
20260503000604 78 302 3.0 6.0 0.00 0.00 0.00 35 1007.8
20260503000404 78 301 3.0 7.0 0.00 0.00 0.00 36 1007.8
20260503000204 78 303 3.0 7.0 0.00 0.00 0.00 34 1007.8